Regional Weather Roundup
Issued by NWS Upton, NY

Current Version | Previous Version | Graphics & Text | Print | Product List | Glossary Off
Versions: 1 2 3 4 5 6 7 8 9 10 11 12 13 14 15 16 17 18 19 20 21 22 23 24 25 26 27 28 29 30 31 32 33 34 35 36 37 38 39 40 41 42 43 44 45 46 47 48 49 50

221
ASUS41 KOKX 211009
RWROKX

Regional Weather Roundup
National Weather Service New York NY
500 AM EST SUN JAN 21 2018

Note: "FAIR" indicates few or no clouds below 12,000 feet with no
significant weather and/or obstructions to visibility.

NYZ071-072-176-178-NJZ106-104-211100-
New York City Metro Area

CITY           SKY/WX    TMP DP  RH WIND       PRES   REMARKS
Central Park   FAIR      44  27  51 W3        30.11R
Bronx Bot Gard   N/A     39  28  65 S1        30.11R
Bronx Lehman C NOT AVBL
LaGuardia Arpt FAIR      43  27  53 VRB3      30.08R
Queens College   N/A     43  30  61 W6          N/A
Kennedy Intl   FAIR      37  29  72 W8        30.10R WCI  31
Breezy Point     N/A     36 N/A N/A W6          N/A  WCI  31
Brooklyn Coll  NOT AVBL
Staten Island    N/A     39  30  70 SW5         N/A
Newark/Liberty FAIR      37  27  67 CALM      30.10R
Teterboro      FAIR      29  25  85 VRB3      30.09R
$$

NYZ177-179-078>081-211100-
Long Island New York

CITY           SKY/WX    TMP DP  RH WIND       PRES   REMARKS
Jones Beach      N/A     39 N/A N/A W8          N/A  WCI  34
Wantagh          N/A     37  30  75 W6          N/A  WCI  33
Matinecock Pt    N/A     41 N/A N/A SW8         N/A
Farmingdale    FAIR      36  28  73 NW5       30.08R WCI  32
MacArthur/ISP  FAIR      38  29  70 W6        30.07R WCI  33
Shirley        FAIR      30  27  88 CALM      30.08R
Mt Sinai Harb    N/A    N/A N/A N/A W3          N/A
Westhampton    FAIR      23  19  85 CALM      30.09R
East Hampton   FAIR      31  26  84 CALM      30.07R
Southold         N/A     36  30  80 W3          N/A
Montauk          N/A     38  31  76 CALM      30.08R
$$

NYZ052-065-067-211100-
Hudson Valley

CITY           SKY/WX    TMP DP  RH WIND       PRES   REMARKS
White Plains   FAIR      28  25  88 NW5       30.06R WCI  23
Larchmont Harb   N/A     34 N/A N/A CALM        N/A
Croton On Huds   N/A     32 N/A N/A CALM        N/A
Somers           N/A     34  28  80 E1          N/A
Brewster       NOT AVBL
Newburgh       CLEAR     32  27  80 CALM      30.07R
Montgomery     FAIR      27  23  85 W9        30.06R WCI  18
Otisville        N/A     34  28  80 SW5         N/A  WCI  30
Warwick          N/A     28  25  86 S1          N/A
Suffern          N/A     39  28  65 SW3         N/A
Poughkeepsie   FAIR      21  19  92 CALM      30.07R
Albany         CLOUDY    38  28  67 NW6       30.09R WCI  33
$$

NJZ001-105-106-008-010-013-015-019>022-104-211100-
New Jersey

CITY           SKY/WX    TMP DP  RH WIND       PRES   REMARKS
Newark/Liberty FAIR      37  27  67 CALM      30.10R
Teterboro      FAIR      29  25  85 VRB3      30.09R
Caldwell       FAIR      28  26  92 CALM      30.10R
Somerville     FAIR      25  24  96 CALM      30.10R
Linden         FAIR      37  27  67 CALM      30.11R
Perth Amboy      N/A     36 N/A N/A NW5         N/A  WCI  32
Sussex         FAIR      21  18  88 CALM      30.09R
Andover          N/A     22  21  96 CALM      30.10R
Trenton        FAIR      40  29  64 W5        30.11R
Millville      FAIR      25  23  92 CALM      30.14R
Atlantic City  FAIR      29  24  82 CALM      30.13R
Wrightstown    FAIR      38  29  69 NW5       30.09R WCI  35
Toms River     FAIR      28  25  88 SW5       30.12S WCI  23
Belmar         FAIR      38  28  67 SW6       30.12R WCI  33
$$

PAZ047>061-062-071-211100-
Eastern Pennsylvania

CITY           SKY/WX    TMP DP  RH WIND       PRES   REMARKS
Philadelphia   FAIR      33  28  81 W3        30.14R
Allentown      FAIR      32  25  75 SW7       30.11R WCI  26
Scranton       FAIR      29  26  89 CALM      30.09R
$$

CTZ002-004>006-009-010-012-RIZ004-006-007-MAZ004-011-015-211100-
Southern New England

 In CT

CITY           SKY/WX    TMP DP  RH WIND       PRES   REMARKS
Bradley Intl   FAIR      26  23  88 S3        30.06R
Hartford       FAIR      27  25  92 CALM      30.08R
Danbury        FAIR      25  22  88 CALM      30.08R
Wtrbury/Oxford FAIR      32  26  78 CALM      30.06R
Norwalk Harbor   N/A     34 N/A N/A W6          N/A  WCI  29
Bridgeport     FAIR      28  24  85 CALM      30.08R
Meriden        FAIR      24  23  96 CALM      30.08R
New Haven      FAIR      27  22  81 CALM      30.08R
Chester        FAIR      37  27  65 W3        30.06R
Groton         FAIR      30  25  81 CALM      30.06R
Willimantic    FAIR      33  26  75 W7        30.06R WCI  27

 In RI

CITY           SKY/WX    TMP DP  RH WIND       PRES   REMARKS
Providence     FAIR      38  29  70 NW3       30.05R
Block Island   FAIR      39  30  70 W9        30.07R WCI  33
Westerly       FAIR      39  29  67 NW3       30.06R

In MA

CITY           SKY/WX    TMP DP  RH WIND       PRES   REMARKS
Boston         CLOUDY    36  29  75 S8        30.04R WCI  30
Worcester      FAIR      35  25  66 W10       30.00R WCI  27
Westfield      FAIR      38  28  67 N3        30.05R
Provincetown   FAIR      35  31  85 SW9       30.05R WCI  28
Nantucket      FAIR      39  32  76 NW9       30.05R WCI  33
$$

ANZ330-335-338-340-345-350-353-355-211100-
Coastal Marine Observations


STATION/POSITION TIME  SKY/WX   TEMP    WIND        PRES    VSBY  WAVE
                                AIR SEA DIR/SP/G                  HT/PER
                 (UTC)          (F)     (DEG/KT/KT) (MB)    (MI)  (FT/S)
NY Harb Entrance 0850            41 38  280/  8/  8 1018.3          3/ 7
20 S Fire Island 0850            42 41  290/ 10/ 12 1018.3          3/ 8
15 E Barnegat Li 0930               41                N/A           3/ 7
Hudson Canyon    0850            48 49  290/ 14/ 16 1018.2          5/ 7
Kings Point      0936            40 33  230/  2/  3 1019.6
Execution Rocks  NOT AVBL
Western LI Sound NOT AVBL
Central LI Sound 0915            36     290/  6/  6   N/A           1
Robbins Reef     0948            41     260/  9/ 10 1019.6
$$


>>>>>>>>>>>>>>>>>>>>>>>>>>>> KEY <<<<<<<<<<<<<<<<<<<<<<<<<<<
>                                                          <
>     SKY/WX - Sky Condition/Present Weather               <
>     TMP    - Temperature in Fahrenheit                   <
>     DP     - Dew Point in Fahrenheit                     <
>     RH     - Relative Humidity in Percent                <
>     WIND   - Direction (from) and Speed in MPH           <
>     PRES   - Mean Sea Level Pressure (inches of Hg)      <
>     WCI    - Wind Chill Index                            <
>     VSB    - Visibility in Miles                         <
>     HX     - Heat Index                                  <
>     TC     - Temperature in Celsius                      <
>     VRB    - Varibale Wind Direction                     <
>                                                          <
>>>>>>>>>>>>>>>>>>>>>>>>>>>> KEY <<<<<<<<<<<<<<<<<<<<<<<<<<<




USA.gov is the U.S. government's official web portal to all federal, state and local government web resources and services.